Regional Weather Roundup
Issued by NWS

Home | Current Version | Previous Version | Text Only | Print | Product List | Glossary Off
Versions: 1 2 3 4 5 6 7 8 9 10 11 12 13 14 15 16 17 18 19 20 21 22 23 24 25 26 27 28 29 30 31 32 33 34 35 36 37 38 39 40 41 42 43 44 45 46 47 48 49 50

000
ASUS43 KBIS 242259
RWRND

NORTH DAKOTA REGIONAL WEATHER ROUNDUP
NATIONAL WEATHER SERVICE BISMARCK ND
600 PM CDT FRI OCT 24 2014

NOTE: "FAIR" INDICATES FEW OR NO CLOUDS BELOW 12,000 FEET WITH NO
SIGNIFICANT WEATHER AND/OR OBSTRUCTIONS TO VISIBILITY.


NDZ001>003-009>011-017-250000-
NORTHWEST NORTH DAKOTA

CITY           SKY/WX    TMP DP  RH WIND       PRES   REMARKS
WILLISTON      MOCLDY    59  26  28 W15G23    29.96R
MINOT          CLEAR     61  27  27 W15G23    29.89R
$$

NDZ018>021-031>035-040>046-250000-
SOUTHWEST NORTH DAKOTA

CITY           SKY/WX    TMP DP  RH WIND       PRES   REMARKS
BISMARCK       MOCLDY    64  34  32 W14       29.95R
GARRISON         N/A     60  30  32 NW17      29.92R
HETTINGER ARPT CLOUDY    59  32  36 NW12      30.02S
$$

NDZ004>008-012>016-024-026-027-054-250000-
NORTHEAST NORTH DAKOTA

CITY           SKY/WX    TMP DP  RH WIND       PRES   REMARKS
GRAND FORKS    PTCLDY    66  32  28 W14       29.78R
DEVILS LAKE    CLEAR     63  32  31 W18       29.82R
$$

NDZ022-023-025-028>030-036>039-047>053-250000-
SOUTHEAST NORTH DAKOTA

CITY           SKY/WX    TMP DP  RH WIND       PRES   REMARKS
FARGO          PTCLDY    72  40  31 W20       29.80R
JAMESTOWN      CLEAR     63  33  32 W15       29.88R
$$




USA.gov is the U.S. government's official web portal to all federal, state and local government web resources and services.